ONEWEB-0214 (48788 NORAD) Tracking and Keplerian Element Data

This shows tracking and keplerian element data for the satellite.

Feedback or suggestion? Click here.




ElementValue
Catalog48788
NameONEWEB-0214
Epoch Orbit185
Epoch Day170.58334491
Epoch Year2021
RAAN268.9027
Inclination87.4011
Eccentricity0.0006738
Argument of Perigee171.5304
Mean Anonmoly53.4215
Mean Motion15.26721814
Decay Rate-0.00979228
L11 48788U 21045X 21170.58334491 -.00979228 00000-0 -40412-1 0 9996
L22 48788 87.4011 268.9027 0006738 171.5304 53.4215 15.26721814 1858

Live tracking and technical data element details for ONEWEB-0214 (NORAD 48788). ONEWEB-0214 can be tracked NOW for your location showing map with azimuth and elevation plus other details from your city location.

Track the satellite on the map from your city or location and see movement details for azimuth, elevation, latitude, longitude, range, height, and movement on the map or in text.







IsCatalogInMostPopularTable: catalog: 48788, numindb: 5
Update: records affected: 1



GetName: 48788 ONEWEB-0214

Hit Count: updated at: Mon, 21 Jun 2021 04:48:46 GMT